| time (UTC) | temp F | wind direction | speed MPH | gust MPH | rain 1hr in | rain 24hr in | rain mn in | humidity % | barometer mb |
| 20260510115426 | 60 | 7 | 5.0 | 6.0 | 0.00 | 0.00 | 0.00 | 72 | 1010.9 |
| 20260510114921 | 60 | 11 | 4.0 | 5.0 | 0.00 | 0.00 | 0.00 | 72 | 1010.8 |
| 20260510114419 | 61 | 331 | 2.0 | 6.0 | 0.00 | 0.00 | 0.00 | 71 | 1010.8 |
| 20260510113914 | 61 | 335 | 3.0 | 6.0 | 0.00 | 0.00 | 0.00 | 70 | 1010.8 |
| 20260510113410 | 61 | 318 | 7.0 | 8.0 | 0.00 | 0.00 | 0.00 | 68 | 1010.5 |
| 20260510112908 | 61 | 357 | 4.0 | 5.0 | 0.00 | 0.00 | 0.00 | 68 | 1010.7 |
| 20260510112405 | 61 | 339 | 1.0 | 4.0 | 0.00 | 0.00 | 0.00 | 67 | 1010.5 |
| 20260510111901 | 61 | 224 | 0.0 | 1.0 | 0.00 | 0.00 | 0.00 | 65 | 1010.5 |
| 20260510111357 | 62 | 316 | 1.0 | 2.0 | 0.00 | 0.00 | 0.00 | 64 | 1010.5 |
| 20260510110852 | 62 | 220 | 0.0 | 4.0 | 0.00 | 0.00 | 0.00 | 62 | 1010.3 |
| 20260510110349 | 62 | 317 | 2.0 | 3.0 | 0.00 | 0.00 | 0.00 | 61 | 1010.2 |
| 20260510105845 | 62 | 333 | 0.0 | 4.0 | 0.00 | 0.00 | 0.00 | 62 | 1010.1 |
| 20260510105345 | 62 | 280 | 3.0 | 4.0 | 0.00 | 0.00 | 0.00 | 61 | 1010.0 |
| 20260510104841 | 62 | 215 | 1.0 | 2.0 | 0.00 | 0.00 | 0.00 | 60 | 1009.9 |
| 20260510104338 | 62 | 227 | 0.0 | 2.0 | 0.00 | 0.00 | 0.00 | 59 | 1009.8 |
| 20260510103834 | 62 | 6 | 0.0 | 2.0 | 0.00 | 0.00 | 0.00 | 62 | 1009.6 |
| 20260510103332 | 61 | 301 | 1.0 | 1.0 | 0.00 | 0.00 | 0.00 | 64 | 1009.8 |
| 20260510102827 | 62 | 335 | 2.0 | 2.0 | 0.00 | 0.00 | 0.00 | 66 | 1009.8 |
| 20260510102323 | 62 | 290 | 0.0 | 1.0 | 0.00 | 0.00 | 0.00 | 63 | 1009.9 |
| 20260510101820 | 62 | 89 | 0.0 | 1.0 | 0.00 | 0.00 | 0.00 | 61 | 1009.7 |
| 20260510101318 | 62 | 52 | 0.0 | 2.0 | 0.00 | 0.00 | 0.00 | 62 | 1009.9 |
| 20260510100814 | 62 | 4 | 3.0 | 3.0 | 0.00 | 0.00 | 0.00 | 64 | 1009.7 |
| 20260510100312 | 58 | 324 | 2.0 | 8.0 | 0.00 | 0.00 | 0.00 | 73 | 1009.7 |
| 20260510095807 | 58 | 41 | 0.0 | 1.0 | 0.00 | 0.00 | 0.00 | 79 | 1009.3 |
| 20260510095305 | 58 | 145 | 0.0 | 1.0 | 0.00 | 0.00 | 0.00 | 78 | 1009.3 |
| 20260510094802 | 57 | 341 | 1.0 | 2.0 | 0.00 | 0.00 | 0.00 | 75 | 1009.3 |
| 20260510094258 | 58 | 98 | 0.0 | 0.0 | 0.00 | 0.00 | 0.00 | 77 | 1009.2 |
| 20260510093753 | 58 | 107 | 0.0 | 1.0 | 0.00 | 0.00 | 0.00 | 76 | 1009.3 |
| 20260510093251 | 58 | 226 | 1.0 | 2.0 | 0.00 | 0.00 | 0.00 | 76 | 1009.1 |
| 20260510092747 | 58 | 299 | 0.0 | 2.0 | 0.00 | 0.00 | 0.00 | 74 | 1009.2 |
| 20260510092243 | 58 | 160 | 0.0 | 2.0 | 0.00 | 0.00 | 0.00 | 73 | 1009.0 |
| 20260510091739 | 58 | 198 | 1.0 | 2.0 | 0.00 | 0.00 | 0.00 | 72 | 1009.2 |
| 20260510091236 | 58 | 0 | 1.0 | 1.0 | 0.00 | 0.00 | 0.00 | 73 | 1008.9 |
| 20260510090732 | 58 | 112 | 0.0 | 0.0 | 0.00 | 0.00 | 0.00 | 72 | 1008.9 |
| 20260510090230 | 59 | 318 | 1.0 | 1.0 | 0.00 | 0.00 | 0.00 | 72 | 1009.0 |
| 20260510085725 | 59 | 173 | 0.0 | 1.0 | 0.00 | 0.00 | 0.00 | 70 | 1009.2 |
| 20260510085220 | 59 | 183 | 0.0 | 2.0 | 0.00 | 0.00 | 0.00 | 69 | 1009.2 |
| 20260510084716 | 60 | 37 | 0.0 | 1.0 | 0.00 | 0.00 | 0.00 | 68 | 1009.2 |
| 20260510084213 | 61 | 215 | 0.0 | 1.0 | 0.00 | 0.00 | 0.00 | 65 | 1009.3 |
| 20260510083710 | 61 | 224 | 0.0 | 0.0 | 0.00 | 0.00 | 0.00 | 65 | 1009.4 |
| 20260510083207 | 60 | 272 | 0.0 | 1.0 | 0.00 | 0.00 | 0.00 | 67 | 1009.3 |
| 20260510082702 | 59 | 346 | 0.0 | 1.0 | 0.00 | 0.00 | 0.00 | 69 | 1009.1 |
| 20260510082159 | 59 | 233 | 0.0 | 1.0 | 0.00 | 0.00 | 0.00 | 69 | 1009.1 |
| 20260510081653 | 59 | 322 | 0.0 | 0.0 | 0.00 | 0.00 | 0.00 | 69 | 1009.1 |
| 20260510081149 | 60 | 185 | 1.0 | 2.0 | 0.00 | 0.00 | 0.00 | 68 | 1009.2 |
| 20260510080648 | 60 | 32 | 0.0 | 1.0 | 0.00 | 0.00 | 0.00 | 68 | 1009.2 |
| 20260510080146 | 60 | 130 | 0.0 | 0.0 | 0.00 | 0.00 | 0.00 | 67 | 1008.9 |
| 20260510075642 | 60 | 22 | 0.0 | 2.0 | 0.00 | 0.00 | 0.00 | 65 | 1008.7 |
| 20260510075140 | 61 | 0 | 2.0 | 2.0 | 0.00 | 0.00 | 0.00 | 64 | 1008.7 |
| 20260510074637 | 61 | 193 | 2.0 | 2.0 | 0.00 | 0.00 | 0.00 | 64 | 1008.6 |
| 20260510074132 | 61 | 178 | 1.0 | 2.0 | 0.00 | 0.00 | 0.00 | 62 | 1008.8 |
| 20260510073629 | 62 | 17 | 0.0 | 3.0 | 0.00 | 0.00 | 0.00 | 62 | 1008.8 |
| 20260510073125 | 62 | 356 | 3.0 | 4.0 | 0.00 | 0.00 | 0.00 | 62 | 1008.7 |
| 20260510072622 | 62 | 42 | 0.0 | 2.0 | 0.00 | 0.00 | 0.00 | 62 | 1008.8 |
| 20260510072118 | 62 | 22 | 1.0 | 4.0 | 0.00 | 0.00 | 0.00 | 63 | 1008.6 |
| 20260510071614 | 61 | 133 | 0.0 | 7.0 | 0.00 | 0.00 | 0.00 | 63 | 1008.9 |
| 20260510071112 | 61 | 336 | 3.0 | 4.0 | 0.00 | 0.00 | 0.00 | 64 | 1008.7 |
| 20260510070609 | 61 | 353 | 2.0 | 2.0 | 0.00 | 0.00 | 0.00 | 64 | 1008.7 |
| 20260510070107 | 61 | 30 | 1.0 | 2.0 | 0.00 | 0.00 | 0.00 | 63 | 1008.6 |
| 20260510065602 | 61 | 235 | 0.0 | 4.0 | 0.00 | 0.00 | 0.00 | 64 | 1008.5 |
| 20260510065058 | 62 | 38 | 0.0 | 2.0 | 0.00 | 0.00 | 0.00 | 63 | 1008.6 |
| 20260510064555 | 61 | 249 | 0.0 | 2.0 | 0.00 | 0.00 | 0.00 | 63 | 1008.4 |
| 20260510064052 | 62 | 222 | 0.0 | 1.0 | 0.00 | 0.00 | 0.00 | 61 | 1008.4 |
| 20260510063549 | 62 | 89 | 0.0 | 2.0 | 0.00 | 0.00 | 0.00 | 61 | 1008.5 |
| 20260510063046 | 62 | 0 | 0.0 | 1.0 | 0.00 | 0.00 | 0.00 | 60 | 1008.6 |
| 20260510062542 | 63 | 159 | 1.0 | 3.0 | 0.00 | 0.00 | 0.00 | 60 | 1008.4 |
| 20260510062037 | 63 | 243 | 2.0 | 2.0 | 0.00 | 0.00 | 0.00 | 60 | 1008.6 |
| 20260510061534 | 63 | 190 | 2.0 | 2.0 | 0.00 | 0.00 | 0.00 | 59 | 1008.7 |
| 20260510061030 | 63 | 243 | 2.0 | 4.0 | 0.00 | 0.00 | 0.00 | 58 | 1008.7 |
| 20260510060527 | 63 | 252 | 4.0 | 4.0 | 0.00 | 0.00 | 0.00 | 59 | 1008.9 |
| 20260510060023 | 63 | 243 | 2.0 | 3.0 | 0.00 | 0.00 | 0.00 | 59 | 1008.7 |
| 20260510055519 | 63 | 214 | 0.0 | 3.0 | 0.00 | 0.00 | 0.00 | 59 | 1008.7 |
| 20260510055018 | 62 | 263 | 1.0 | 4.0 | 0.00 | 0.00 | 0.00 | 59 | 1008.6 |
| 20260510054513 | 62 | 129 | 0.0 | 1.0 | 0.00 | 0.00 | 0.00 | 59 | 1008.5 |
| 20260510054003 | 62 | 166 | 0.0 | 2.0 | 0.00 | 0.00 | 0.00 | 59 | 1008.5 |
| 20260510053502 | 62 | 241 | 0.0 | 2.0 | 0.00 | 0.00 | 0.00 | 60 | 1008.4 |
| 20260510053000 | 62 | 200 | 1.0 | 2.0 | 0.00 | 0.00 | 0.00 | 60 | 1008.7 |
| 20260510052456 | 62 | 19 | 1.0 | 2.0 | 0.00 | 0.00 | 0.00 | 59 | 1008.3 |
| 20260510051953 | 63 | 40 | 2.0 | 2.0 | 0.00 | 0.00 | 0.00 | 58 | 1008.8 |
| 20260510051448 | 63 | 289 | 0.0 | 1.0 | 0.00 | 0.00 | 0.00 | 57 | 1008.8 |
| 20260510050944 | 63 | 210 | 0.0 | 0.0 | 0.00 | 0.00 | 0.00 | 57 | 1008.8 |
| 20260510050442 | 63 | 204 | 2.0 | 2.0 | 0.00 | 0.00 | 0.00 | 57 | 1008.6 |
| 20260510045939 | 64 | 239 | 1.0 | 3.0 | 0.00 | 0.00 | 0.00 | 58 | 1008.6 |
| 20260510045436 | 63 | 207 | 3.0 | 4.0 | 0.00 | 0.00 | 0.00 | 59 | 1008.4 |
| 20260510044933 | 62 | 230 | 2.0 | 4.0 | 0.00 | 0.00 | 0.00 | 58 | 1008.3 |
| 20260510044430 | 61 | 209 | 1.0 | 3.0 | 0.00 | 0.00 | 0.00 | 60 | 1008.1 |
| 20260510043926 | 62 | 174 | 0.0 | 1.0 | 0.00 | 0.00 | 0.00 | 60 | 1008.1 |
| 20260510043422 | 61 | 10 | 0.0 | 0.0 | 0.00 | 0.00 | 0.00 | 60 | 1008.1 |
| 20260510042921 | 61 | 193 | 0.0 | 2.0 | 0.00 | 0.00 | 0.00 | 62 | 1008.1 |
| 20260510042416 | 60 | 203 | 0.0 | 1.0 | 0.00 | 0.00 | 0.00 | 61 | 1008.1 |
| 20260510041912 | 60 | 309 | 0.0 | 1.0 | 0.00 | 0.00 | 0.00 | 64 | 1008.1 |
| 20260510041409 | 60 | 69 | 0.0 | 0.0 | 0.00 | 0.00 | 0.00 | 65 | 1008.0 |
| 20260510040907 | 60 | 6 | 0.0 | 1.0 | 0.00 | 0.00 | 0.00 | 66 | 1008.1 |
| 20260510040404 | 60 | 23 | 1.0 | 2.0 | 0.00 | 0.00 | 0.00 | 63 | 1008.4 |
| 20260510035859 | 61 | 121 | 0.0 | 2.0 | 0.00 | 0.00 | 0.00 | 67 | 1008.1 |
| 20260510035355 | 61 | 235 | 0.0 | 2.0 | 0.00 | 0.00 | 0.00 | 64 | 1008.0 |
| 20260510034851 | 60 | 297 | 0.0 | 2.0 | 0.00 | 0.00 | 0.00 | 64 | 1007.8 |
| 20260510034349 | 60 | 217 | 0.0 | 0.0 | 0.00 | 0.00 | 0.00 | 65 | 1007.8 |
| 20260510033845 | 60 | 193 | 0.0 | 1.0 | 0.00 | 0.00 | 0.00 | 63 | 1007.5 |
| 20260510033342 | 60 | 336 | 0.0 | 0.0 | 0.00 | 0.00 | 0.00 | 63 | 1007.6 |
| 20260510032838 | 61 | 336 | 0.0 | 0.0 | 0.00 | 0.00 | 0.00 | 63 | 1007.7 |
| 20260510032335 | 61 | 180 | 0.0 | 0.0 | 0.00 | 0.00 | 0.00 | 64 | 1007.7 |
| 20260510031831 | 61 | 315 | 0.0 | 0.0 | 0.00 | 0.00 | 0.00 | 64 | 1007.7 |
| 20260510031327 | 61 | 315 | 0.0 | 0.0 | 0.00 | 0.00 | 0.00 | 64 | 1007.6 |
| 20260510030826 | 62 | 315 | 0.0 | 0.0 | 0.00 | 0.00 | 0.00 | 63 | 1007.6 |
| 20260510030323 | 61 | 315 | 0.0 | 0.0 | 0.00 | 0.00 | 0.00 | 64 | 1007.5 |
| 20260510025820 | 61 | 230 | 0.0 | 0.0 | 0.00 | 0.00 | 0.00 | 64 | 1007.5 |
| 20260510025318 | 62 | 336 | 0.0 | 0.0 | 0.00 | 0.00 | 0.00 | 65 | 1007.4 |
| 20260510024814 | 62 | 336 | 0.0 | 0.0 | 0.00 | 0.00 | 0.00 | 64 | 1007.3 |
| 20260510024311 | 62 | 336 | 0.0 | 0.0 | 0.00 | 0.00 | 0.00 | 64 | 1007.2 |
| 20260510023808 | 62 | 324 | 0.0 | 1.0 | 0.00 | 0.00 | 0.00 | 65 | 1007.2 |
| 20260510023304 | 62 | 230 | 0.0 | 0.0 | 0.00 | 0.00 | 0.00 | 65 | 1007.0 |
| 20260510022801 | 62 | 221 | 0.0 | 1.0 | 0.00 | 0.00 | 0.00 | 64 | 1007.1 |
| 20260510022300 | 62 | 243 | 0.0 | 0.0 | 0.00 | 0.00 | 0.00 | 65 | 1006.9 |
| 20260510021800 | 62 | 235 | 0.0 | 0.0 | 0.00 | 0.00 | 0.00 | 67 | 1006.8 |
| 20260510021258 | 62 | 199 | 1.0 | 1.0 | 0.00 | 0.00 | 0.00 | 62 | 1006.7 |
| 20260510020754 | 63 | 44 | 0.0 | 0.0 | 0.00 | 0.00 | 0.00 | 61 | 1006.7 |
| 20260510020254 | 63 | 336 | 0.0 | 0.0 | 0.00 | 0.00 | 0.00 | 60 | 1006.5 |
| 20260510015750 | 64 | 218 | 0.0 | 2.0 | 0.00 | 0.00 | 0.00 | 60 | 1006.5 |
| 20260510015247 | 64 | 212 | 0.0 | 0.0 | 0.00 | 0.00 | 0.00 | 59 | 1006.4 |
| 20260510014741 | 64 | 212 | 0.0 | 0.0 | 0.00 | 0.00 | 0.00 | 58 | 1006.2 |
| 20260510014239 | 64 | 37 | 0.0 | 0.0 | 0.00 | 0.00 | 0.00 | 58 | 1006.3 |
| 20260510013735 | 65 | 37 | 0.0 | 0.0 | 0.00 | 0.00 | 0.00 | 57 | 1006.2 |
| 20260510013230 | 65 | 256 | 0.0 | 0.0 | 0.00 | 0.00 | 0.00 | 56 | 1006.1 |
| 20260510012725 | 65 | 256 | 0.0 | 0.0 | 0.00 | 0.00 | 0.00 | 56 | 1006.2 |
| 20260510012220 | 65 | 322 | 0.0 | 0.0 | 0.00 | 0.00 | 0.00 | 57 | 1006.1 |
| 20260510011720 | 66 | 37 | 0.0 | 0.0 | 0.00 | 0.00 | 0.00 | 56 | 1005.9 |
| 20260510011216 | 67 | 13 | 0.0 | 0.0 | 0.00 | 0.00 | 0.00 | 54 | 1006.0 |
| 20260510010713 | 67 | 5 | 0.0 | 2.0 | 0.00 | 0.00 | 0.00 | 53 | 1005.7 |
| 20260510010209 | 68 | 186 | 0.0 | 0.0 | 0.00 | 0.00 | 0.00 | 53 | 1005.9 |
| 20260510005706 | 68 | 230 | 0.0 | 0.0 | 0.00 | 0.00 | 0.00 | 55 | 1005.9 |
| 20260510005203 | 68 | 352 | 0.0 | 2.0 | 0.00 | 0.00 | 0.00 | 57 | 1005.7 |
| 20260510004702 | 68 | 6 | 2.0 | 2.0 | 0.00 | 0.00 | 0.00 | 56 | 1005.6 |
| 20260510004159 | 69 | 189 | 0.0 | 2.0 | 0.00 | 0.00 | 0.00 | 62 | 1005.4 |
| 20260510003656 | 71 | 164 | 0.0 | 0.0 | 0.00 | 0.00 | 0.00 | 52 | 1005.6 |
| 20260510003152 | 72 | 164 | 0.0 | 0.0 | 0.00 | 0.00 | 0.00 | 46 | 1005.6 |
| 20260510002651 | 72 | 235 | 0.0 | 0.0 | 0.00 | 0.00 | 0.00 | 44 | 1005.4 |
| 20260510002149 | 73 | 256 | 0.0 | 1.0 | 0.00 | 0.00 | 0.00 | 42 | 1005.6 |
| 20260510001646 | 75 | 217 | 0.0 | 0.0 | 0.00 | 0.00 | 0.00 | 39 | 1005.6 |
| 20260510001144 | 76 | 210 | 0.0 | 1.0 | 0.00 | 0.00 | 0.00 | 36 | 1005.3 |
| 20260510000644 | 78 | 50 | 0.0 | 0.0 | 0.00 | 0.00 | 0.00 | 40 | 1005.6 |
| 20260510000142 | 81 | 185 | 0.0 | 0.0 | 0.00 | 0.00 | 0.00 | 32 | 1005.3 |
| 20260509235638 | 81 | 124 | 0.0 | 0.0 | 0.00 | 0.00 | 0.00 | 31 | 1005.4 |
| 20260509235135 | 82 | 242 | 0.0 | 0.0 | 0.00 | 0.00 | 0.00 | 27 | 1005.3 |
| 20260509234631 | 83 | 256 | 0.0 | 1.0 | 0.00 | 0.00 | 0.00 | 26 | 1005.4 |
| 20260509234129 | 83 | 129 | 0.0 | 1.0 | 0.00 | 0.00 | 0.00 | 25 | 1005.1 |
| 20260509233626 | 83 | 218 | 0.0 | 2.0 | 0.00 | 0.00 | 0.00 | 29 | 1005.3 |
| 20260509233124 | 82 | 352 | 0.0 | 1.0 | 0.00 | 0.00 | 0.00 | 26 | 1005.3 |
| 20260509232620 | 82 | 297 | 1.0 | 3.0 | 0.00 | 0.00 | 0.00 | 28 | 1005.3 |
| 20260509232117 | 82 | 330 | 1.0 | 3.0 | 0.00 | 0.00 | 0.00 | 27 | 1005.3 |
| 20260509231613 | 85 | 44 | 0.0 | 1.0 | 0.00 | 0.00 | 0.00 | 24 | 1005.2 |
| 20260509231111 | 85 | 243 | 0.0 | 2.0 | 0.00 | 0.00 | 0.00 | 29 | 1005.2 |
| 20260509230608 | 83 | 278 | 2.0 | 5.0 | 0.00 | 0.00 | 0.00 | 25 | 1005.4 |
| 20260509230105 | 82 | 220 | 2.0 | 4.0 | 0.00 | 0.00 | 0.00 | 24 | 1005.4 |
| 20260509225600 | 83 | 286 | 1.0 | 4.0 | 0.00 | 0.00 | 0.00 | 23 | 1005.3 |
| 20260509225056 | 83 | 225 | 2.0 | 3.0 | 0.00 | 0.00 | 0.00 | 27 | 1005.3 |
| 20260509224551 | 83 | 263 | 2.0 | 5.0 | 0.00 | 0.00 | 0.00 | 27 | 1005.2 |
| 20260509224049 | 82 | 239 | 3.0 | 4.0 | 0.00 | 0.00 | 0.00 | 27 | 1005.2 |
| 20260509223546 | 82 | 275 | 3.0 | 5.0 | 0.00 | 0.00 | 0.00 | 26 | 1005.1 |
| 20260509223044 | 82 | 255 | 3.0 | 4.0 | 0.00 | 0.00 | 0.00 | 33 | 1005.1 |
| 20260509222539 | 82 | 223 | 4.0 | 6.0 | 0.00 | 0.00 | 0.00 | 24 | 1005.2 |
| 20260509222036 | 81 | 271 | 4.0 | 6.0 | 0.00 | 0.00 | 0.00 | 25 | 1005.2 |
| 20260509221531 | 82 | 332 | 5.0 | 5.0 | 0.00 | 0.00 | 0.00 | 26 | 1005.1 |
| 20260509221027 | 81 | 217 | 4.0 | 7.0 | 0.00 | 0.00 | 0.00 | 22 | 1005.1 |
| 20260509220523 | 81 | 219 | 4.0 | 9.0 | 0.00 | 0.00 | 0.00 | 23 | 1005.0 |
| 20260509220020 | 81 | 209 | 2.0 | 4.0 | 0.00 | 0.00 | 0.00 | 26 | 1005.1 |
| 20260509215515 | 80 | 325 | 3.0 | 5.0 | 0.00 | 0.00 | 0.00 | 25 | 1005.2 |
| 20260509215013 | 81 | 315 | 8.0 | 8.0 | 0.00 | 0.00 | 0.00 | 26 | 1005.0 |
| 20260509214510 | 81 | 308 | 5.0 | 9.0 | 0.00 | 0.00 | 0.00 | 24 | 1005.1 |
| 20260509214007 | 81 | 309 | 4.0 | 7.0 | 0.00 | 0.00 | 0.00 | 28 | 1005.2 |
| 20260509213502 | 82 | 286 | 3.0 | 4.0 | 0.00 | 0.00 | 0.00 | 25 | 1005.2 |
| 20260509213000 | 81 | 213 | 2.0 | 2.0 | 0.00 | 0.00 | 0.00 | 26 | 1005.1 |
| 20260509212457 | 80 | 234 | 3.0 | 6.0 | 0.00 | 0.00 | 0.00 | 26 | 1004.9 |
| 20260509211953 | 80 | 317 | 5.0 | 7.0 | 0.00 | 0.00 | 0.00 | 25 | 1005.1 |
| 20260509211449 | 80 | 348 | 6.0 | 8.0 | 0.00 | 0.00 | 0.00 | 24 | 1005.2 |
| 20260509210945 | 80 | 311 | 6.0 | 8.0 | 0.00 | 0.00 | 0.00 | 26 | 1005.0 |
| 20260509210442 | 81 | 345 | 3.0 | 7.0 | 0.00 | 0.00 | 0.00 | 25 | 1005.2 |
| 20260509205938 | 82 | 273 | 3.0 | 9.0 | 0.00 | 0.00 | 0.00 | 25 | 1005.2 |
| 20260509205433 | 82 | 261 | 4.0 | 5.0 | 0.00 | 0.00 | 0.00 | 26 | 1005.3 |
| 20260509204929 | 81 | 210 | 3.0 | 5.0 | 0.00 | 0.00 | 0.00 | 24 | 1005.4 |
| 20260509204425 | 81 | 238 | 3.0 | 6.0 | 0.00 | 0.00 | 0.00 | 28 | 1005.3 |
| 20260509203922 | 82 | 234 | 6.0 | 11.0 | 0.00 | 0.00 | 0.00 | 27 | 1005.4 |
| 20260509203418 | 81 | 242 | 3.0 | 6.0 | 0.00 | 0.00 | 0.00 | 30 | 1005.6 |
| 20260509202916 | 80 | 239 | 2.0 | 8.0 | 0.00 | 0.00 | 0.00 | 26 | 1005.8 |
| 20260509202411 | 80 | 324 | 3.0 | 9.0 | 0.00 | 0.00 | 0.00 | 24 | 1005.7 |
| 20260509201906 | 80 | 289 | 4.0 | 8.0 | 0.00 | 0.00 | 0.00 | 25 | 1005.8 |
| 20260509201402 | 80 | 272 | 4.0 | 8.0 | 0.00 | 0.00 | 0.00 | 24 | 1005.8 |
| 20260509200900 | 81 | 276 | 4.0 | 12.0 | 0.00 | 0.00 | 0.00 | 27 | 1006.0 |
| 20260509200359 | 81 | 240 | 4.0 | 7.0 | 0.00 | 0.00 | 0.00 | 30 | 1005.9 |
| 20260509195857 | 81 | 353 | 3.0 | 5.0 | 0.00 | 0.00 | 0.00 | 27 | 1005.9 |
| 20260509195356 | 80 | 187 | 2.0 | 6.0 | 0.00 | 0.00 | 0.00 | 28 | 1005.8 |
| 20260509194856 | 79 | 325 | 6.0 | 6.0 | 0.00 | 0.00 | 0.00 | 26 | 1006.1 |
| 20260509194353 | 80 | 247 | 1.0 | 3.0 | 0.00 | 0.00 | 0.00 | 27 | 1006.1 |
| 20260509193849 | 79 | 211 | 4.0 | 7.0 | 0.00 | 0.00 | 0.00 | 26 | 1006.1 |
| 20260509193350 | 81 | 232 | 11.0 | 11.0 | 0.00 | 0.00 | 0.00 | 28 | 1006.2 |
| 20260509192846 | 80 | 267 | 2.0 | 7.0 | 0.00 | 0.00 | 0.00 | 27 | 1006.1 |
| 20260509192342 | 80 | 256 | 1.0 | 3.0 | 0.00 | 0.00 | 0.00 | 29 | 1006.0 |
| 20260509191838 | 80 | 312 | 4.0 | 9.0 | 0.00 | 0.00 | 0.00 | 35 | 1006.2 |
| 20260509191333 | 79 | 231 | 7.0 | 10.0 | 0.00 | 0.00 | 0.00 | 27 | 1005.9 |
| 20260509190830 | 79 | 232 | 4.0 | 8.0 | 0.00 | 0.00 | 0.00 | 28 | 1006.2 |
| 20260509190327 | 80 | 308 | 12.0 | 12.0 | 0.00 | 0.00 | 0.00 | 28 | 1006.2 |
| 20260509185824 | 79 | 278 | 2.0 | 8.0 | 0.00 | 0.00 | 0.00 | 34 | 1006.2 |
| 20260509185320 | 79 | 265 | 2.0 | 6.0 | 0.00 | 0.00 | 0.00 | 27 | 1005.9 |
| 20260509184818 | 79 | 256 | 4.0 | 7.0 | 0.00 | 0.00 | 0.00 | 32 | 1006.0 |
| 20260509184315 | 79 | 205 | 2.0 | 15.0 | 0.00 | 0.00 | 0.00 | 32 | 1006.1 |
| 20260509183812 | 79 | 233 | 6.0 | 9.0 | 0.00 | 0.00 | 0.00 | 28 | 1006.1 |
| 20260509183307 | 79 | 295 | 5.0 | 5.0 | 0.00 | 0.00 | 0.00 | 33 | 1006.1 |
| 20260509182803 | 80 | 248 | 4.0 | 8.0 | 0.00 | 0.00 | 0.00 | 25 | 1006.1 |
| 20260509182300 | 79 | 260 | 5.0 | 6.0 | 0.00 | 0.00 | 0.00 | 34 | 1006.3 |
| 20260509181757 | 79 | 293 | 3.0 | 6.0 | 0.00 | 0.00 | 0.00 | 31 | 1006.0 |
| 20260509181254 | 79 | 297 | 5.0 | 12.0 | 0.00 | 0.00 | 0.00 | 25 | 1005.9 |
| 20260509180752 | 79 | 273 | 1.0 | 4.0 | 0.00 | 0.00 | 0.00 | 28 | 1006.1 |
| 20260509180248 | 79 | 222 | 7.0 | 9.0 | 0.00 | 0.00 | 0.00 | 27 | 1006.0 |
| 20260509175744 | 79 | 238 | 3.0 | 8.0 | 0.00 | 0.00 | 0.00 | 27 | 1006.1 |
| 20260509175241 | 78 | 287 | 4.0 | 5.0 | 0.00 | 0.00 | 0.00 | 31 | 1006.2 |
| 20260509174737 | 78 | 209 | 4.0 | 12.0 | 0.00 | 0.00 | 0.00 | 28 | 1006.2 |
| 20260509174232 | 78 | 244 | 9.0 | 11.0 | 0.00 | 0.00 | 0.00 | 26 | 1006.1 |
| 20260509173729 | 78 | 318 | 5.0 | 6.0 | 0.00 | 0.00 | 0.00 | 29 | 1006.0 |
| 20260509173224 | 78 | 291 | 6.0 | 9.0 | 0.00 | 0.00 | 0.00 | 31 | 1006.3 |
| 20260509172721 | 78 | 283 | 2.0 | 5.0 | 0.00 | 0.00 | 0.00 | 30 | 1006.3 |
| 20260509172217 | 77 | 1 | 1.0 | 6.0 | 0.00 | 0.00 | 0.00 | 34 | 1006.3 |
| 20260509171713 | 78 | 265 | 4.0 | 6.0 | 0.00 | 0.00 | 0.00 | 32 | 1006.3 |
| 20260509171209 | 78 | 198 | 4.0 | 6.0 | 0.00 | 0.00 | 0.00 | 36 | 1006.3 |
| 20260509170706 | 78 | 253 | 3.0 | 8.0 | 0.00 | 0.00 | 0.00 | 33 | 1006.3 |
| 20260509170202 | 77 | 207 | 3.0 | 8.0 | 0.00 | 0.00 | 0.00 | 39 | 1006.3 |
| 20260509165701 | 77 | 211 | 4.0 | 6.0 | 0.00 | 0.00 | 0.00 | 35 | 1006.3 |
| 20260509165156 | 76 | 328 | 5.0 | 6.0 | 0.00 | 0.00 | 0.00 | 34 | 1006.5 |
| 20260509164652 | 76 | 333 | 2.0 | 7.0 | 0.00 | 0.00 | 0.00 | 40 | 1006.3 |
| 20260509164148 | 77 | 194 | 6.0 | 7.0 | 0.00 | 0.00 | 0.00 | 44 | 1006.3 |
| 20260509163646 | 76 | 199 | 9.0 | 10.0 | 0.00 | 0.00 | 0.00 | 40 | 1006.2 |
| 20260509163142 | 76 | 203 | 2.0 | 7.0 | 0.00 | 0.00 | 0.00 | 48 | 1006.4 |
| 20260509162639 | 76 | 198 | 8.0 | 10.0 | 0.00 | 0.00 | 0.00 | 42 | 1006.3 |
| 20260509162134 | 77 | 181 | 2.0 | 5.0 | 0.00 | 0.00 | 0.00 | 46 | 1006.4 |
| 20260509161631 | 76 | 219 | 4.0 | 6.0 | 0.00 | 0.00 | 0.00 | 43 | 1006.5 |
| 20260509161126 | 75 | 221 | 2.0 | 4.0 | 0.00 | 0.00 | 0.00 | 40 | 1006.4 |
| 20260509160622 | 75 | 222 | 9.0 | 10.0 | 0.00 | 0.00 | 0.00 | 45 | 1006.3 |
| 20260509160118 | 74 | 189 | 5.0 | 9.0 | 0.00 | 0.00 | 0.00 | 44 | 1006.3 |
| 20260509155614 | 75 | 238 | 4.0 | 10.0 | 0.00 | 0.00 | 0.00 | 44 | 1006.3 |
| 20260509155110 | 75 | 211 | 3.0 | 7.0 | 0.00 | 0.00 | 0.00 | 41 | 1006.3 |
| 20260509154606 | 75 | 240 | 8.0 | 9.0 | 0.00 | 0.00 | 0.00 | 44 | 1006.4 |
| 20260509154104 | 75 | 215 | 4.0 | 5.0 | 0.00 | 0.00 | 0.00 | 48 | 1006.4 |
| 20260509153601 | 74 | 234 | 3.0 | 4.0 | 0.00 | 0.00 | 0.00 | 48 | 1006.4 |
| 20260509153058 | 74 | 240 | 3.0 | 5.0 | 0.00 | 0.00 | 0.00 | 48 | 1006.4 |
| 20260509152553 | 73 | 294 | 2.0 | 5.0 | 0.00 | 0.00 | 0.00 | 47 | 1006.5 |
| 20260509152051 | 74 | 210 | 5.0 | 7.0 | 0.00 | 0.00 | 0.00 | 46 | 1006.3 |
| 20260509151547 | 74 | 17 | 0.0 | 5.0 | 0.00 | 0.00 | 0.00 | 46 | 1006.4 |
| 20260509151045 | 74 | 219 | 1.0 | 6.0 | 0.00 | 0.00 | 0.00 | 49 | 1006.2 |
| 20260509150542 | 74 | 215 | 6.0 | 6.0 | 0.00 | 0.00 | 0.00 | 51 | 1006.4 |
| 20260509150041 | 73 | 225 | 3.0 | 5.0 | 0.00 | 0.00 | 0.00 | 58 | 1006.2 |
| 20260509145536 | 73 | 225 | 2.0 | 5.0 | 0.00 | 0.00 | 0.00 | 55 | 1006.2 |
| 20260509145031 | 72 | 296 | 0.0 | 4.0 | 0.00 | 0.00 | 0.00 | 53 | 1006.2 |
| 20260509144528 | 71 | 245 | 2.0 | 6.0 | 0.00 | 0.00 | 0.00 | 55 | 1006.4 |
| 20260509144026 | 71 | 331 | 6.0 | 6.0 | 0.00 | 0.00 | 0.00 | 54 | 1006.3 |
| 20260509143522 | 70 | 226 | 2.0 | 7.0 | 0.00 | 0.00 | 0.00 | 59 | 1006.2 |
| 20260509143020 | 71 | 260 | 1.0 | 4.0 | 0.00 | 0.00 | 0.00 | 57 | 1006.2 |
| 20260509142515 | 70 | 220 | 2.0 | 4.0 | 0.00 | 0.00 | 0.00 | 61 | 1006.2 |
| 20260509142011 | 69 | 245 | 4.0 | 5.0 | 0.00 | 0.00 | 0.00 | 59 | 1006.1 |
| 20260509141508 | 69 | 212 | 4.0 | 4.0 | 0.00 | 0.00 | 0.00 | 61 | 1005.8 |
| 20260509141005 | 68 | 266 | 4.0 | 4.0 | 0.00 | 0.00 | 0.00 | 63 | 1005.9 |
| 20260509140501 | 68 | 230 | 4.0 | 6.0 | 0.00 | 0.00 | 0.00 | 64 | 1006.0 |
| 20260509135959 | 68 | 251 | 4.0 | 5.0 | 0.00 | 0.00 | 0.00 | 63 | 1005.9 |
| 20260509135456 | 67 | 218 | 2.0 | 5.0 | 0.00 | 0.00 | 0.00 | 66 | 1005.8 |
| 20260509134954 | 67 | 221 | 1.0 | 4.0 | 0.00 | 0.00 | 0.00 | 68 | 1005.9 |
| 20260509134451 | 67 | 206 | 3.0 | 3.0 | 0.00 | 0.00 | 0.00 | 67 | 1005.9 |
| 20260509133949 | 66 | 281 | 3.0 | 4.0 | 0.00 | 0.00 | 0.00 | 70 | 1006.0 |
| 20260509133444 | 65 | 197 | 3.0 | 3.0 | 0.00 | 0.00 | 0.00 | 75 | 1005.8 |
| 20260509132943 | 63 | 215 | 2.0 | 3.0 | 0.00 | 0.00 | 0.00 | 74 | 1006.0 |
| 20260509132441 | 63 | 244 | 5.0 | 8.0 | 0.00 | 0.00 | 0.00 | 75 | 1005.8 |
| 20260509131937 | 62 | 231 | 2.0 | 8.0 | 0.00 | 0.00 | 0.00 | 78 | 1005.8 |
| 20260509131435 | 62 | 237 | 3.0 | 3.0 | 0.00 | 0.00 | 0.00 | 81 | 1005.8 |
| 20260509130931 | 61 | 273 | 4.0 | 5.0 | 0.00 | 0.00 | 0.00 | 78 | 1006.0 |
| 20260509130426 | 61 | 226 | 3.0 | 9.0 | 0.00 | 0.00 | 0.00 | 79 | 1005.9 |
| 20260509125924 | 61 | 235 | 4.0 | 6.0 | 0.00 | 0.00 | 0.00 | 79 | 1005.9 |
| 20260509125421 | 61 | 242 | 3.0 | 4.0 | 0.00 | 0.00 | 0.00 | 82 | 1005.8 |
| 20260509124917 | 60 | 320 | 2.0 | 3.0 | 0.00 | 0.00 | 0.00 | 82 | 1006.0 |
| 20260509124414 | 60 | 241 | 3.0 | 4.0 | 0.00 | 0.00 | 0.00 | 82 | 1005.8 |
| 20260509123911 | 61 | 224 | 4.0 | 4.0 | 0.00 | 0.00 | 0.00 | 82 | 1005.7 |
| 20260509123408 | 59 | 196 | 2.0 | 3.0 | 0.00 | 0.00 | 0.00 | 86 | 1005.8 |
| 20260509122904 | 59 | 219 | 4.0 | 4.0 | 0.00 | 0.00 | 0.00 | 86 | 1005.6 |
| 20260509122401 | 59 | 240 | 3.0 | 4.0 | 0.00 | 0.00 | 0.00 | 88 | 1005.4 |
| 20260509121858 | 58 | 235 | 2.0 | 5.0 | 0.00 | 0.00 | 0.00 | 87 | 1005.2 |
| 20260509121355 | 58 | 213 | 2.0 | 3.0 | 0.00 | 0.00 | 0.00 | 89 | 1005.1 |
| 20260509120853 | 57 | 191 | 0.0 | 2.0 | 0.00 | 0.00 | 0.00 | 93 | 1005.3 |
| 20260509120351 | 57 | 219 | 2.0 | 2.0 | 0.00 | 0.00 | 0.00 | 97 | 1005.2 |
| 20260509115848 | 55 | 257 | 2.0 | 2.0 | 0.00 | 0.00 | 0.00 | 98 | 1005.1 |